[[{"header":{"parameterUnit":"m.s-1","parameterCategory":1,"la1":30.2992,"la2":30.254,"lo1":-89.0895,"lo2":-89.0443,"dy":0.0025,"dx":0.0025,"nx":19,"ny":19,"refTime":"2026-04-23T09:00:00:Z","depth":0,"parameterNumber":2,"parameterNumberName":"U-component_of_WINDS"},"data":[0,0,0,-4.5499,-4.5502,-4.5681,-4.5682,-4.5916,-4.5918,0,0,0,0,0,0,0,0,0,0,0,-4.5448,-4.545,-4.5498,-4.5503,-4.5681,-4.5682,-4.5915,-4.5918,0,0,0,0,0,0,0,0,0,0,0,-4.5448,-4.545,-4.5452,-4.5503,-4.5681,-4.5682,-4.5915,-4.5778,0,0,0,0,0,0,0,0,0,0,-4.5604,-4.556,-4.5449,-4.5452,-4.5504,-4.568,-4.5682,-4.5772,-4.5787,-4.5837,0,-4.5882,0,-4.5903,-4.5934,-4.5935,0,0,0,-4.5501,-4.5548,-4.5593,-4.5452,-4.5506,-4.568,-4.56,-4.578,-4.5797,-4.5857,-4.5885,-4.5893,-4.5907,-4.5935,-4.5936,-4.6229,-4.623,0,0,-4.5491,-4.5482,-4.5581,-4.5604,-4.5576,-4.5594,-4.5606,-4.579,-4.582,-4.5886,-4.5899,-4.5911,-4.5937,-4.5939,-4.6227,-4.6229,0,0,0,-4.5464,-4.5475,-4.5516,-4.5595,-4.5626,-4.5599,-4.5612,-4.5812,-4.5826,-4.5901,-4.5914,-4.5938,-4.5941,-4.6226,-4.6228,-4.6288,0,0,0,-4.5458,-4.546,-4.5512,-4.5508,-4.5623,-4.5721,-4.563,-4.5813,-4.5834,-4.5913,-4.5938,-4.5943,-4.6224,-4.6227,-4.6283,-4.6318,0,0,0,-4.5436,-4.5457,-4.5484,-4.5508,-4.5584,-4.5719,-4.5743,-4.5818,-4.5842,-4.5935,-4.5944,-4.6223,-4.6226,-4.6279,-4.631,-4.639,0,0,0,-4.541,-4.5536,-4.5484,-4.5631,-4.5582,-4.5755,-4.5742,-4.5872,-4.5958,-4.5939,-4.6224,-4.6228,-4.6277,-4.6306,-4.6385,-4.6454,-4.6482,0,0,-4.5564,-4.5555,-4.5641,-4.56,-4.5779,-4.5728,-4.5917,-4.6006,-4.6024,-4.616,-4.6167,-4.6285,-4.631,-4.6389,-4.6648,-4.667,0,0,0,-4.5687,-4.5749,-4.5799,-4.588,-4.595,-4.6012,-4.6073,-4.6106,-4.6221,-4.6092,-4.6337,-4.6352,-4.6399,-4.6432,-4.6451,-4.6491,-4.6243,-4.6243,-4.6243,-4.5892,-4.5907,-4.6051,-4.6087,-4.6167,-4.6227,-4.6293,-4.6348,-4.6342,-4.6399,-4.6439,-4.6594,-4.6632,-4.6647,-4.6688,-4.6478,-4.6479,-4.6479,-4.6479,-4.6118,-4.6207,-4.6194,-4.6328,-4.6344,-4.6458,-4.6523,-4.6514,-4.6623,-4.6566,-4.6608,-4.6542,-4.6671,-4.6708,-4.6484,-4.6483,-4.6482,-4.6482,-4.6482,-4.6251,-4.6296,-4.6334,-4.6451,-4.6541,-4.6575,-4.6679,-4.6691,-4.6703,-4.6745,-4.6786,-4.6786,-4.6784,-4.6764,-4.6765,-4.6765,-4.6766,-4.6766,-4.6766,-4.6374,-4.6414,-4.6499,-4.6584,-4.6637,-4.6708,-4.6771,-4.6824,-4.6886,-4.6886,-4.6887,-4.6874,-4.6681,-4.6631,-4.6775,-4.6773,-4.6772,-4.6771,-4.6771,-4.6594,-4.6546,-4.6677,-4.673,-4.6829,-4.6917,-4.6931,-4.7038,-4.7084,-4.7135,-4.7114,-4.697,-4.6961,-4.6946,-4.6904,-4.7111,-4.7111,-4.7111,-4.7111,-4.6705,-4.6701,-4.6837,-4.6921,-4.7005,-4.703,-4.7179,-4.7229,-4.7274,-4.7304,-4.7277,-4.7223,-4.7208,-4.7208,-4.7187,-4.7149,-4.7412,-4.7413,-4.7413,-4.6839,-4.6845,-4.6968,-4.7009,-4.7088,-4.7155,-4.7295,-4.7393,-4.7435,-4.7425,-4.7327,-4.7314,-4.7228,-4.72,-4.7186,-4.7154,-4.7083,0,0]},{"header":{"parameterUnit":"m.s-1","parameterCategory":1,"la1":30.2992,"la2":30.254,"lo1":-89.0895,"lo2":-89.0443,"dy":0.0025,"dx":0.0025,"nx":19,"ny":19,"refTime":"2026-04-23T09:00:00:Z","depth":0,"parameterNumber":3,"parameterNumberName":"V-component_of_WINDS"},"data":[0,0,0,3.1507,3.1509,3.1566,3.1566,3.164,3.1641,0,0,0,0,0,0,0,0,0,0,0,3.1493,3.1494,3.1507,3.1509,3.1566,3.1566,3.164,3.1641,0,0,0,0,0,0,0,0,0,0,0,3.1493,3.1493,3.1494,3.1509,3.1566,3.1566,3.164,3.1596,0,0,0,0,0,0,0,0,0,0,3.154,3.153,3.1493,3.1494,3.1509,3.1566,3.1566,3.1594,3.1599,3.1615,0,3.1633,0,3.1638,3.1646,3.1646,0,0,0,3.1506,3.1526,3.1539,3.1494,3.151,3.1566,3.1539,3.1596,3.1602,3.1622,3.1634,3.1636,3.1639,3.1647,3.1647,3.1757,3.1758,0,0,3.1503,3.1504,3.1535,3.1543,3.1536,3.1538,3.1541,3.16,3.1612,3.1634,3.1638,3.1641,3.1647,3.1648,3.1757,3.1757,0,0,0,3.1496,3.1502,3.1514,3.154,3.155,3.1539,3.1544,3.1609,3.1613,3.1639,3.1642,3.1648,3.1649,3.1756,3.1757,3.179,0,0,0,3.1494,3.1498,3.1513,3.1514,3.1549,3.1581,3.1552,3.1609,3.1616,3.1641,3.1648,3.1649,3.1755,3.1756,3.1788,3.1805,0,0,0,3.1488,3.1497,3.1506,3.1514,3.1539,3.158,3.1587,3.1611,3.1618,3.1646,3.1649,3.1755,3.1756,3.1785,3.1801,3.1834,0,0,0,3.1482,3.1534,3.1507,3.1565,3.1538,3.1601,3.1587,3.1633,3.1662,3.1648,3.1755,3.1757,3.1785,3.1799,3.1832,3.1862,3.1875,0,0,3.1547,3.1542,3.1576,3.1554,3.1622,3.1592,3.1664,3.1688,3.1689,3.1734,3.1737,3.1788,3.1801,3.1834,3.1948,3.1958,0,0,0,3.1597,3.1622,3.164,3.1668,3.169,3.1709,3.1723,3.1732,3.177,3.1713,3.1809,3.1817,3.1836,3.185,3.1859,3.1875,3.1764,3.1763,3.1763,3.169,3.169,3.1747,3.1755,3.1782,3.1797,3.1819,3.1833,3.1823,3.1846,3.1859,3.1929,3.1945,3.1952,3.1969,3.1876,3.1876,3.1876,3.1876,3.1785,3.182,3.1809,3.186,3.1859,3.1901,3.1917,3.1909,3.1947,3.1919,3.1935,3.1904,3.1963,3.1978,3.1878,3.1878,3.1878,3.1877,3.1877,3.1845,3.1862,3.1874,3.1917,3.1949,3.1954,3.1992,3.199,3.1987,3.2004,3.2017,3.2017,3.2015,3.2011,3.2011,3.2011,3.2011,3.2012,3.2012,3.1903,3.1916,3.1949,3.1978,3.1996,3.202,3.2036,3.2053,3.2072,3.2067,3.2067,3.2055,3.197,3.1948,3.2015,3.2015,3.2014,3.2014,3.2014,3.1999,3.1977,3.2029,3.2048,3.2081,3.2113,3.2111,3.2147,3.2161,3.2179,3.2164,3.2102,3.2095,3.2088,3.207,3.2164,3.2164,3.2164,3.2164,3.2049,3.2047,3.2099,3.213,3.2159,3.2163,3.2219,3.2232,3.2241,3.2249,3.2235,3.2212,3.2205,3.2202,3.2192,3.2175,3.2295,3.2295,3.2295,3.2108,3.2108,3.2158,3.2169,3.2195,3.2217,3.227,3.2304,3.231,3.23,3.2256,3.225,3.2212,3.2199,3.2188,3.2173,3.2142,0,0]}]]